Location: Camp at the Woods
(43.2055°N, 93.0905°W)
Time: 01:38:45
(UTC+00:00)

Cosmos 2227 Rocket - Pass Details

Date: 26 May 2025
Orbit: 837 x 844 km, 71.0° (Epoch: 12 June)

Event Time Altitude Azimuth Distance (km) Brightness Sun altitude
Exits shadow 09:31:26 - 269° (W) 2,925 4.6 -10.6°
Reaches altitude 10° 09:33:30 10° 285° (WNW) 2,456 4.3 -10.4°
Maximum altitude 09:36:28 14° 317° (NW) 2,167 4.3 -10.0°
Drops below altitude 10° 09:39:26 10° 349° (NNW) 2,465 5.0 -9.6°
Sets 09:43:11 0° 13° (NNE) 3,405 6.3 -9.0°
